GEFSMW_con_prob3kmehi_264.txt.gz
EHI
0 0 0 0 0 1 1 1 3 7 9 7 5 5 5 4 3 3 3 3 3 4 5 4 3 3 3 2 1 0 0 0 0 0 0 0 0 0 0 0 0 0 0
0 0 0 0 0 2 3 3 4 7 8 8 7 5 4 3 3 3 3 4 4 4 3 3 2 3 3 2 1 0 0 0 0 0 0 0 0 0 0 0 0 0 0
1 0 1 1 1 2 4 5 6 6 7 8 7 4 3 3 3 4 4 4 4 4 2 1 1 2 3 2 1 0 0 0 0 0 0 0 0 0 0 0 0 0 0
2 2 2 2 2 3 4 5 6 6 6 6 5 3 2 3 4 4 5 4 3 2 1 0 0 1 2 2 1 0 0 0 1 1 0 0 0 0 0 0 0 0 0
4 3 3 3 3 4 5 6 6 5 4 4 3 2 3 4 4 4 4 3 1 1 1 0 0 0 1 1 0 0 0 1 2 2 1 0 0 0 0 0 0 0 0
5 4 4 4 4 6 8 7 6 4 3 2 2 3 4 4 4 4 3 2 1 0 0 0 0 0 0 0 0 0 0 1 2 3 2 0 0 0 0 0 0 0 0
5 6 7 7 8 9 9 8 6 4 2 2 3 4 5 6 5 5 3 2 0 0 0 0 0 0 0 0 0 0 0 0 1 2 1 0 0 0 0 0 0 0 0
5 7 11 13 13 12 11 9 7 5 3 3 4 5 6 6 5 4 3 2 0 0 0 0 0 0 0 0 0 0 0 0 0 0 0 0 0 0 0 1 2 1 1
5 6 10 15 17 16 13 11 10 8 6 5 6 6 6 5 4 3 2 1 0 0 0 0 0 0 0 0 0 0 0 0 0 0 0 1 0 0 2 4 5 4 3
4 4 7 13 17 16 14 13 13 11 9 9 8 7 6 4 4 3 2 1 0 0 0 0 0 0 1 1 0 0 0 0 0 0 1 1 0 1 3 5 6 6 5
3 3 6 11 15 16 13 14 15 14 11 10 10 8 6 5 4 2 2 2 1 1 0 0 0 1 2 1 0 0 0 0 0 1 1 1 0 1 3 6 7 7 8
4 4 6 10 14 15 14 15 16 15 12 10 10 9 8 6 5 3 2 3 3 2 1 0 0 1 2 1 0 0 0 1 1 2 2 1 1 2 5 7 8 9 10
5 6 7 10 13 14 14 16 17 17 14 12 11 10 9 8 6 5 4 4 4 3 2 1 1 1 2 2 1 1 1 2 2 3 4 3 2 3 6 8 9 10 10
8 9 9 10 11 12 13 16 18 18 17 16 14 13 11 10 8 7 8 8 7 6 5 4 3 2 3 3 3 3 3 2 2 3 3 4 4 5 6 8 9 9 9
10 11 11 10 11 12 12 14 16 18 19 18 17 15 13 11 10 9 9 9 9 8 7 6 5 3 3 3 3 4 4 3 2 2 2 3 3 3 4 5 6 6 6
13 12 10 9 9 10 11 13 16 19 19 17 15 13 11 10 9 9 9 10 10 9 9 8 7 5 3 2 1 3 5 4 3 2 2 2 2 1 1 1 2 2 3
13 10 7 6 7 7 10 13 16 19 19 15 11 9 8 8 8 8 9 10 11 10 9 9 8 7 4 1 0 2 4 5 5 4 3 2 2 1 0 0 0 0 1
9 7 5 4 6 8 10 13 15 16 17 14 10 9 9 9 9 9 10 11 11 10 9 8 8 7 4 1 0 1 2 4 4 5 4 3 2 1 0 0 0 0 0
6 6 5 5 7 9 11 12 13 13 14 14 13 13 14 13 12 12 12 12 12 11 10 8 7 7 5 2 0 1 2 4 4 4 3 2 1 0 0 0 0 0 0
5 6 7 8 9 11 11 12 12 11 12 13 14 15 16 15 14 14 14 14 13 12 10 9 9 9 7 3 0 1 4 6 5 3 1 0 0 0 0 0 0 0 0
6 7 8 9 10 10 10 9 10 10 10 10 10 12 14 14 13 13 14 13 13 12 11 10 10 10 9 4 1 1 4 6 6 4 2 1 0 0 0 0 0 0 0
9 8 7 8 9 9 9 8 8 10 10 9 8 10 12 12 13 13 13 12 11 10 10 11 11 11 11 7 2 0 1 4 6 5 3 1 0 0 0 0 0 0 0
9 8 7 7 8 9 9 9 10 11 11 10 9 9 9 10 11 12 12 12 11 10 11 11 12 13 13 10 5 2 1 1 3 4 3 1 0 0 0 0 0 0 0
9 8 7 7 8 10 10 11 12 13 13 11 9 7 7 7 9 10 12 12 11 10 10 11 12 14 15 14 10 5 3 2 2 2 2 1 1 0 0 0 0 0 0
9 8 7 7 8 10 12 13 15 16 16 13 10 8 7 7 7 9 10 11 9 8 7 8 10 11 13 13 10 7 4 3 3 4 3 3 3 2 2 2 1 0 0
11 8 6 7 8 11 13 15 17 18 17 15 12 10 8 7 7 8 9 8 7 5 4 5 7 8 9 9 7 5 3 2 3 4 5 5 5 4 4 3 1 0 0

GEFSMW_con_prob3kmehi_270.txt.gz
EHI
7 7 6 6 5 5 6 7 10 13 15 14 12 12 12 11 11 10 10 10 9 6 5 6 7 8 8 7 6 5 4 5 6 5 4 3 3 4 4 3 2 2 2
8 9 9 9 8 6 5 7 11 14 16 15 15 14 14 13 13 13 12 11 8 5 4 4 4 5 6 6 6 5 4 4 4 4 3 2 2 2 1 1 1 1 1
8 10 12 13 10 7 5 7 12 15 16 17 16 16 16 16 15 15 13 11 8 5 3 1 1 1 2 4 5 4 3 2 2 2 1 1 1 0 0 0 0 0 0
8 10 14 15 13 9 6 8 13 17 18 18 17 17 17 16 15 13 12 9 6 5 3 1 0 0 1 2 4 4 3 3 2 1 1 2 2 2 1 1 1 0 0
7 9 13 15 14 12 10 12 17 21 21 19 18 18 17 15 13 12 10 8 6 4 2 1 0 0 0 1 3 4 4 3 3 3 3 4 5 4 2 1 1 1 1
7 9 12 14 16 15 15 19 24 27 25 22 20 19 16 14 13 13 11 8 6 4 2 0 0 0 0 0 2 4 3 3 4 4 5 5 6 5 3 1 0 0 0
7 9 11 14 16 17 19 24 29 31 30 27 24 20 16 13 13 12 10 8 5 3 2 1 0 0 0 0 1 2 3 4 6 5 4 4 5 4 3 1 0 0 0
9 9 12 14 16 18 20 26 32 34 34 31 27 22 16 12 10 10 7 4 2 1 1 1 0 1 0 0 0 1 3 5 6 5 4 4 4 3 3 2 1 0 0
9 10 12 15 17 19 22 27 33 35 34 30 25 20 15 12 11 8 6 4 2 2 2 1 1 1 0 0 1 1 3 6 8 6 6 5 4 3 3 3 2 3 3
9 10 12 16 18 20 23 29 34 35 31 27 23 17 15 15 14 12 10 8 7 6 5 4 3 2 1 2 2 3 5 8 9 8 6 5 5 5 5 4 5 7 9
12 12 14 17 20 23 25 28 32 33 30 27 24 20 18 17 17 16 14 12 9 8 6 6 6 5 4 4 5 5 7 9 8 6 5 4 5 6 7 6 8 12 14
16 16 17 20 24 27 29 29 29 30 30 29 27 25 23 20 19 18 15 12 9 8 8 9 10 10 8 8 8 8 8 8 6 4 4 4 6 9 11 12 13 15 15
20 22 26 29 31 33 33 31 27 27 28 27 26 27 28 25 21 17 13 11 10 9 11 14 15 15 13 13 12 11 10 9 7 6 5 5 7 11 14 17 19 17 15
24 29 35 37 37 37 35 31 27 25 25 25 25 27 30 29 25 19 14 13 11 12 14 16 17 17 16 16 14 12 10 10 10 10 9 8 8 11 14 18 19 18 15
27 31 35 38 39 37 35 33 30 30 29 28 26 26 28 28 25 20 16 15 14 15 15 16 15 15 14 12 11 11 10 10 12 13 13 11 10 9 10 11 13 14 14
23 25 29 32 34 35 36 35 34 35 35 32 30 28 27 27 24 20 17 17 19 20 19 18 16 14 11 7 6 6 8 10 13 15 15 13 11 9 7 5 5 8 10
17 20 24 27 27 29 32 33 33 34 35 35 34 32 30 28 25 21 20 21 23 23 22 21 20 17 12 6 3 3 5 10 14 16 16 14 13 11 10 7 5 6 7
15 17 20 21 22 24 27 28 27 27 30 32 33 33 32 31 28 25 26 27 27 25 24 23 22 20 15 7 2 2 4 8 11 13 14 14 13 13 13 12 11 11 11
14 16 18 19 21 24 26 25 21 20 22 26 29 32 33 31 29 28 30 31 30 28 26 24 23 22 17 9 3 3 6 9 11 11 12 12 12 12 11 12 12 12 12
13 16 20 23 25 27 27 24 20 17 18 21 26 31 32 30 27 27 29 30 30 29 27 25 24 23 18 11 4 4 9 12 12 12 12 11 11 8 7 8 10 10 10
13 17 24 28 28 27 26 23 20 18 19 22 26 30 31 28 25 24 25 28 28 28 27 27 27 25 20 13 5 3 8 12 13 13 13 12 9 5 3 5 7 7 7
15 21 28 31 27 24 23 22 19 19 21 23 27 30 31 29 25 23 23 25 27 26 25 26 26 25 22 16 8 3 4 8 11 12 12 11 7 2 0 1 3 3 3
19 23 30 31 26 21 21 21 21 21 22 25 28 31 32 31 27 23 22 23 24 23 21 20 21 21 21 18 12 5 3 4 8 10 10 7 4 1 1 1 1 1 2
21 24 29 30 27 23 21 22 23 23 23 24 27 29 31 30 26 23 20 20 19 17 16 16 16 16 17 16 13 9 7 6 7 9 8 6 3 2 2 3 3 4 4
21 23 27 28 28 25 24 24 24 25 24 23 25 26 25 24 22 20 18 17 15 12 11 12 12 12 12 11 11 10 9 8 8 9 10 10 7 6 5 6 6 6 7
21 23 25 27 27 26 26 25 25 26 25 23 24 24 22 21 18 16 15 14 11 8 7 9 10 10 8 7 6 7 7 7 7 9 12 13 11 9 8 8 8 7 7

GEFSMW_con_prob3kmehi_276.txt.gz
EHI
16 15 14 16 22 31 34 33 33 32 28 23 21 21 20 19 19 21 22 20 16 14 14 13 13 13 10 8 8 7 6 5 4 5 8 10 14 18 21 22 23 23 24
20 21 19 18 24 32 36 36 37 35 31 28 25 24 23 21 19 21 21 19 16 14 13 14 13 11 8 7 8 8 5 3 2 3 6 6 9 12 16 20 23 22 22
25 27 25 22 24 30 36 41 44 43 37 32 29 28 27 24 21 21 21 19 16 14 13 14 12 9 6 5 6 6 4 2 0 2 3 4 5 7 11 15 19 21 21
27 29 29 25 24 28 35 44 50 48 42 35 31 31 30 26 23 23 23 20 17 14 14 15 12 9 5 3 3 4 4 3 1 1 3 5 6 7 8 9 12 17 20
25 31 33 30 27 28 35 45 52 52 47 40 35 34 32 29 26 25 26 23 18 16 16 16 14 10 6 3 2 3 4 4 3 2 3 5 7 7 6 6 8 11 14
22 30 38 39 35 33 38 47 56 57 51 45 41 38 36 34 31 30 29 24 20 19 16 15 15 14 9 5 4 4 5 5 6 6 5 5 5 5 5 5 5 6 7
18 26 38 44 44 42 44 53 62 63 55 49 47 46 43 39 36 33 29 24 20 19 18 17 18 18 14 9 9 10 9 9 11 11 9 7 5 4 4 4 4 3 3
16 22 33 41 44 46 48 57 65 65 59 54 53 51 47 40 35 32 27 23 21 20 22 23 22 21 16 12 13 14 14 15 16 15 13 12 9 6 4 4 4 3 2
18 22 29 36 41 45 49 56 64 65 60 55 52 50 47 42 38 34 29 26 25 23 25 27 27 24 19 16 17 18 19 20 20 19 18 17 14 11 9 8 9 8 7
21 25 30 36 40 44 50 57 61 61 57 51 49 48 48 45 42 39 34 32 30 27 28 30 29 27 24 23 22 21 21 22 23 22 22 21 19 18 17 16 16 16 17
21 26 33 37 40 43 51 58 59 55 50 47 45 46 47 46 44 42 38 36 33 31 29 30 29 28 28 28 26 23 21 22 23 23 24 23 21 22 22 20 20 21 23
21 27 34 39 42 44 50 56 55 50 45 43 42 43 45 45 45 44 42 39 37 36 33 31 31 29 30 31 31 27 21 19 21 22 22 22 22 24 25 22 20 22 23
25 30 37 43 46 48 51 53 52 48 44 43 43 44 45 47 48 48 45 43 43 42 38 36 35 33 31 33 34 32 26 22 22 22 22 23 24 26 27 24 23 23 23
34 37 43 47 50 52 53 51 48 46 46 47 48 48 49 50 51 51 49 47 46 44 41 40 39 36 33 32 33 34 31 28 27 26 27 27 25 25 25 24 25 26 26
40 44 50 52 53 53 50 47 45 46 49 50 50 50 51 52 53 53 50 48 47 45 41 39 39 38 34 28 28 30 30 31 32 32 32 28 24 21 20 20 22 24 25
42 49 55 57 56 52 47 44 43 46 50 50 49 49 51 52 52 50 48 47 47 45 41 38 38 37 31 23 19 20 25 30 34 36 34 26 19 17 15 14 13 13 15
47 52 56 57 56 50 46 44 43 45 48 47 46 47 48 48 47 45 44 44 43 41 39 39 38 35 28 19 11 11 18 26 32 38 38 29 19 15 15 14 10 9 9
52 54 53 52 51 47 43 42 41 42 43 43 43 44 44 43 42 42 41 40 38 37 36 37 38 36 28 18 8 7 14 22 29 35 37 33 24 18 16 16 15 15 14
51 51 49 47 48 46 43 41 39 39 40 41 42 43 41 39 40 41 39 37 35 34 32 34 37 37 31 19 7 6 15 24 29 31 31 29 24 17 14 15 19 20 20
47 46 45 46 50 50 47 44 40 39 39 40 41 42 40 38 39 40 38 35 33 32 32 33 35 36 33 22 8 8 19 28 29 28 25 22 16 11 10 13 18 20 19
42 41 42 47 52 51 49 46 43 40 38 37 37 38 39 38 38 39 38 35 33 33 33 32 31 33 33 24 10 7 17 25 27 26 23 19 11 6 6 9 14 15 14
36 37 41 47 49 48 47 44 42 40 38 34 32 34 36 36 37 38 37 36 35 34 32 30 29 31 32 25 11 4 8 16 21 23 21 15 7 3 2 4 7 8 7
30 34 38 41 44 44 43 41 40 40 38 33 31 33 34 34 35 37 37 35 33 32 30 29 29 31 32 25 12 3 1 5 12 15 13 7 3 1 1 1 2 3 6
27 31 36 38 41 42 41 39 39 39 37 34 32 33 34 33 35 37 35 30 27 27 28 28 29 31 30 25 16 7 3 2 4 5 4 2 1 2 3 3 2 5 8
28 30 35 38 40 42 40 37 37 37 36 34 33 32 32 32 34 34 29 22 19 20 21 22 24 26 25 20 15 10 6 4 2 2 3 3 3 6 8 8 7 8 9
31 32 34 37 39 41 39 35 35 36 37 35 34 32 31 32 32 30 23 16 13 13 13 15 18 20 18 14 11 10 7 5 3 3 6 7 7 9 11 11 10 9 9

GEFSMW_con_prob3kmehi_282.txt.gz
EHI
4 6 9 13 13 13 13 12 9 7 7 7 7 7 7 7 6 5 5 6 6 7 6 4 2 1 0 0 0 0 0 0 0 0 0 0 0 0 0 0 1 2 3
4 7 10 13 14 13 13 12 10 8 8 8 7 8 8 8 7 7 7 8 8 8 7 4 1 0 0 0 0 0 0 0 0 0 0 0 0 0 0 0 0 2 3
4 8 12 15 15 14 13 12 10 8 8 8 8 8 9 9 9 9 9 9 9 10 7 4 1 0 0 0 0 0 0 1 1 1 1 1 1 0 0 0 1 2 2
7 10 14 15 15 13 13 13 12 10 9 8 8 8 10 10 10 9 9 8 8 8 5 2 1 0 0 0 0 0 0 1 2 2 2 2 2 1 1 0 1 1 1
11 13 15 16 15 14 13 13 15 15 13 11 10 11 12 12 11 9 8 7 7 5 3 1 0 0 0 0 0 0 0 1 2 3 3 3 3 3 2 1 0 0 0
16 15 16 18 19 17 15 16 19 20 19 17 17 16 15 15 13 10 7 6 6 4 1 0 0 0 0 0 0 0 0 0 1 3 3 3 3 3 3 2 1 0 0
19 19 19 20 22 22 21 22 24 24 23 22 23 21 18 15 13 9 7 6 6 4 2 1 0 0 0 0 0 0 0 0 1 3 4 3 3 4 4 3 2 1 0
22 23 24 24 24 25 26 27 28 26 24 24 23 20 17 13 10 7 6 6 5 5 4 3 1 1 1 0 0 0 0 1 3 4 5 4 4 5 5 4 3 2 1
21 23 26 26 25 26 28 28 28 25 25 24 20 16 14 11 8 5 4 4 4 5 6 4 3 2 2 2 2 1 1 2 4 5 5 5 6 6 6 6 5 4 2
20 22 25 25 24 26 29 29 27 25 25 24 20 15 12 11 9 7 5 4 5 6 6 5 4 4 5 6 6 4 4 4 5 6 6 7 7 7 6 6 5 4 3
18 20 22 24 23 25 29 30 28 26 26 25 22 18 15 13 12 12 10 8 7 7 6 6 5 6 8 10 9 8 7 7 7 7 7 7 7 8 7 5 4 3 3
15 16 20 23 23 25 30 32 31 29 28 28 27 24 21 17 15 15 14 13 11 8 6 7 8 9 10 12 11 10 10 9 8 7 7 7 8 8 7 5 3 3 3
15 16 19 22 24 28 33 36 35 32 31 32 32 30 25 21 18 17 18 17 14 10 7 7 9 11 13 13 12 11 11 11 10 8 7 7 7 7 7 5 4 3 3
18 18 18 19 23 27 32 35 34 32 31 33 33 30 27 23 21 20 20 19 16 12 9 8 10 13 14 14 13 12 13 13 12 10 8 7 7 7 7 6 4 3 3
17 18 18 19 21 25 29 31 31 29 29 31 30 27 26 23 21 20 19 17 15 12 10 9 10 12 12 11 11 12 14 15 14 12 10 8 7 7 7 6 4 4 5
13 15 19 20 19 23 28 30 29 28 28 30 29 27 25 22 19 17 16 13 11 10 9 9 9 9 8 6 7 8 11 14 14 12 10 8 7 6 6 5 4 4 5
12 13 17 18 16 20 27 30 29 29 30 31 31 30 27 23 19 16 14 12 10 10 10 10 10 10 8 5 2 4 7 9 10 10 10 10 9 7 6 5 4 3 3
13 13 14 13 13 19 25 28 30 32 33 33 32 31 28 24 20 17 15 13 12 11 12 12 13 13 11 6 1 1 3 4 6 8 9 11 11 8 6 5 3 2 2
16 15 14 14 16 20 24 27 30 33 33 33 33 31 28 25 21 19 16 15 14 13 13 13 14 15 13 7 2 1 1 1 2 4 6 9 9 5 3 3 3 2 1
20 18 18 20 23 25 25 27 28 30 30 30 32 31 29 26 23 21 19 17 15 14 14 13 13 13 11 7 3 1 2 2 1 2 4 5 4 1 1 2 3 2 1
22 22 22 24 26 27 28 27 27 26 24 25 27 29 28 26 24 22 20 18 15 15 15 15 13 11 9 6 3 2 3 3 2 3 5 4 2 0 0 1 2 1 0
24 25 24 25 26 26 28 28 26 24 22 22 23 25 25 24 22 21 20 18 16 16 16 15 13 11 9 7 4 2 2 3 3 5 6 5 2 0 0 0 0 0 0
24 25 25 25 26 26 26 25 23 22 22 23 22 23 23 21 18 17 17 17 15 15 14 13 11 9 9 8 6 3 1 1 2 3 4 3 1 0 0 0 0 0 0
20 22 22 22 23 23 22 21 20 19 21 22 21 21 21 18 15 14 14 13 12 11 10 9 9 8 7 8 8 6 3 1 1 1 1 1 0 0 0 0 0 0 0
18 18 17 15 16 17 18 19 19 18 18 18 19 19 17 16 14 12 11 10 8 7 7 8 9 8 6 7 8 7 4 2 1 1 0 0 0 0 0 0 0 0 0
17 17 14 12 12 14 16 19 19 18 17 17 19 18 15 14 13 11 9 8 7 6 6 8 9 8 5 6 7 6 3 2 1 1 1 1 0 0 0 0 0 0 0

GEFSMW_con_prob3kmehi_288.txt.gz
EHI
0 0 0 0 0 0 0 0 0 1 3 6 6 6 6 5 3 2 1 2 3 4 4 4 3 2 2 1 0 0 0 0 0 0 0 0 0 0 0 0 0 0 0
0 0 0 0 0 0 1 1 1 1 3 5 6 6 6 4 2 1 2 3 3 4 5 4 3 1 1 0 0 0 0 0 0 0 0 0 0 0 0 0 0 0 0
0 0 0 0 0 1 2 2 2 3 4 5 5 6 6 4 3 2 3 3 4 5 5 3 1 0 0 0 0 0 0 0 0 0 0 0 0 0 0 0 0 0 0
0 1 2 2 1 2 3 3 3 4 4 5 6 6 6 4 3 3 3 3 3 4 3 1 0 0 0 0 0 0 0 0 0 0 0 0 0 0 0 0 0 0 0
2 3 4 4 3 3 3 3 3 3 4 5 6 6 6 4 3 3 3 3 3 2 2 1 0 0 0 0 0 0 0 0 0 0 0 1 1 0 1 1 1 1 0
4 5 6 6 4 2 3 4 4 4 4 4 4 5 4 3 2 2 2 2 1 1 1 1 0 0 0 0 0 0 0 0 0 1 1 2 2 2 3 3 3 2 1
4 6 6 5 3 2 4 5 5 5 5 4 3 3 2 2 1 0 1 1 0 0 0 1 0 0 0 0 0 0 0 0 0 1 2 3 3 4 5 6 5 3 1
4 5 5 4 3 2 3 5 6 6 5 4 2 2 2 1 0 0 0 0 0 0 0 0 0 0 0 0 0 0 0 0 0 1 1 2 3 4 6 7 6 4 2
4 5 4 3 2 1 2 4 5 5 4 3 2 1 1 1 1 0 0 0 0 0 1 1 0 0 0 0 0 0 0 0 1 1 2 3 5 6 7 7 6 5 5
4 4 4 2 1 0 1 3 4 4 3 2 1 1 0 0 1 1 0 0 0 0 1 1 0 0 0 1 1 1 1 1 2 2 3 6 7 8 9 8 7 7 8
4 4 4 2 1 1 2 3 3 3 3 3 3 3 1 1 1 2 1 1 0 0 1 1 0 0 1 2 2 2 3 3 4 4 5 6 8 10 10 9 9 9 9
4 5 4 2 2 2 3 5 5 5 6 6 6 5 3 2 2 3 3 2 1 0 0 1 1 1 2 3 3 3 3 5 5 5 5 6 7 9 11 10 10 9 8
5 5 4 3 3 4 5 7 8 8 9 9 9 8 5 4 4 5 5 3 2 1 1 1 2 2 3 3 3 2 3 5 5 4 4 5 6 7 9 10 8 6 5
6 6 5 4 5 6 6 8 9 9 9 11 11 9 7 6 6 8 7 5 3 2 2 2 3 3 3 3 4 4 5 5 5 4 5 6 7 7 8 8 6 4 3
5 6 6 6 6 6 7 8 8 8 10 11 11 10 10 10 10 11 10 7 5 4 4 4 4 4 4 4 4 6 7 7 6 6 6 6 7 7 6 5 4 2 1
4 5 7 8 8 7 6 8 9 10 12 14 13 12 13 14 13 13 13 10 7 6 6 7 6 5 5 3 3 5 8 8 8 8 7 6 5 5 4 3 2 0 0
2 3 6 8 9 7 7 9 11 12 16 17 15 14 16 17 16 15 15 12 9 7 7 8 8 8 6 2 1 2 6 8 9 8 7 6 5 5 4 3 1 0 0
2 3 5 7 8 8 8 10 12 14 17 18 18 18 20 20 18 16 16 14 10 7 7 8 9 9 7 3 1 1 3 6 8 8 8 7 6 5 5 4 3 1 0
3 2 4 7 8 9 10 12 14 16 18 19 20 21 23 22 20 17 16 14 11 9 8 8 8 9 8 6 2 1 3 5 6 7 7 7 5 3 4 5 6 3 2
2 2 5 7 8 10 12 15 17 17 18 19 20 22 22 21 18 15 14 12 10 9 8 8 7 8 8 6 3 1 3 4 5 6 7 5 3 2 2 4 7 5 4
2 3 5 7 8 10 13 16 18 18 18 19 20 20 20 18 16 13 11 9 8 6 6 6 6 6 6 5 3 1 2 3 4 5 6 5 2 1 1 2 4 4 3
5 6 6 6 7 10 14 16 17 18 20 21 19 18 17 17 15 11 9 8 7 5 3 3 3 3 3 3 3 1 1 2 3 4 5 5 3 1 0 0 1 1 1
7 7 7 8 9 11 13 14 15 17 20 20 18 15 14 15 14 10 8 7 6 5 4 2 2 2 2 2 2 1 1 1 2 3 4 3 2 1 0 0 0 0 1
8 9 9 10 11 12 12 12 13 16 18 18 16 14 13 13 12 10 7 6 6 6 5 3 2 2 1 1 1 1 0 0 0 1 2 2 1 1 1 1 1 1 2
8 9 10 11 12 12 11 11 13 17 18 17 16 15 15 14 12 9 6 5 5 4 3 1 1 1 1 0 0 0 0 0 0 0 1 2 2 2 2 2 2 3 3
8 9 9 10 11 11 10 11 14 17 18 17 16 16 16 15 13 10 5 3 2 2 1 0 1 1 1 0 0 0 0 0 0 0 0 1 3 3 3 3 3 3 3

GEFSMW_con_prob3kmehi_294.txt.gz
EHI
1 1 0 0 1 1 2 3 4 4 4 4 4 5 7 9 11 10 9 9 10 10 10 11 10 9 9 9 10 10 9 7 5 6 5 3 2 2 1 0 1 1 1
2 2 1 1 2 3 3 4 5 5 5 6 6 7 8 9 10 10 10 9 9 9 10 10 9 9 9 9 10 9 9 7 7 7 6 5 4 3 1 0 1 2 3
3 3 2 2 3 4 4 4 6 7 7 7 8 8 9 9 9 10 9 8 8 8 9 9 9 9 9 9 9 9 9 8 8 9 9 8 6 4 3 2 3 5 6
1 2 2 2 2 3 4 5 8 10 10 9 8 8 8 8 8 8 8 8 7 7 8 9 9 9 9 9 9 9 10 10 9 10 11 10 9 8 7 6 6 8 8
0 1 1 1 1 2 4 7 11 14 15 13 11 10 9 8 8 8 9 8 7 6 6 8 10 10 9 9 10 11 11 11 10 11 12 11 10 11 11 9 9 9 9
1 2 3 3 4 4 6 9 14 17 19 18 17 16 12 10 10 11 11 9 6 5 5 7 9 10 9 10 12 13 11 10 10 10 11 10 9 10 10 10 9 8 7
3 4 6 7 7 8 9 11 16 20 21 21 22 19 15 12 13 13 12 10 7 5 5 6 7 7 7 8 9 10 9 8 8 9 10 10 9 8 9 9 7 6 5
4 5 7 9 9 10 11 13 19 23 23 21 20 18 15 13 13 13 12 11 8 6 5 6 5 5 6 5 6 6 6 7 8 8 8 9 9 8 8 8 8 6 5
5 5 8 9 9 9 11 14 19 22 22 19 17 15 13 11 11 11 11 10 8 6 5 4 5 6 7 8 8 7 8 10 10 9 8 9 10 10 9 9 10 9 8
7 7 8 9 8 8 9 11 14 17 19 18 15 13 12 10 10 10 11 10 8 8 8 7 7 9 10 12 12 11 11 13 13 12 10 9 10 12 12 12 11 11 11
9 8 10 11 10 9 8 8 10 13 15 16 15 13 11 11 12 12 11 10 9 11 13 13 12 12 13 13 13 12 12 13 14 14 12 10 11 14 15 14 13 15 16
11 11 14 17 16 12 10 9 9 10 12 15 17 16 14 15 16 15 13 11 11 12 14 15 14 12 12 11 10 9 10 11 13 13 12 12 15 17 17 16 16 17 18
18 18 20 23 23 20 17 14 12 11 14 17 19 19 20 21 20 17 14 13 12 12 13 13 12 10 8 8 8 10 11 11 11 11 12 14 18 21 21 20 19 19 17
24 24 25 26 27 27 26 22 16 15 19 21 21 21 23 24 23 19 16 15 15 15 16 16 14 11 9 8 10 12 13 12 12 12 13 14 17 20 22 21 21 21 20
26 27 28 28 29 30 31 28 22 20 23 23 21 21 22 22 22 21 19 20 20 20 20 21 19 16 12 10 10 11 13 14 14 14 14 15 15 16 17 15 15 18 20
25 27 29 29 28 28 30 30 27 24 24 23 21 21 21 21 21 22 23 25 26 25 25 24 24 21 16 10 7 6 9 12 15 15 15 14 13 12 11 9 7 9 12
22 23 25 26 25 25 26 29 29 27 25 23 22 24 24 24 24 24 25 28 30 30 29 26 25 24 19 10 4 3 6 11 15 16 16 14 12 11 11 9 5 5 6
15 16 19 21 21 20 22 26 29 30 29 26 25 27 28 27 27 26 26 28 31 32 31 28 25 23 19 10 4 3 7 12 14 15 15 14 12 11 11 11 9 9 9
10 11 13 16 19 19 22 26 29 32 32 28 28 30 30 30 29 30 30 31 31 32 31 28 25 22 17 9 3 4 9 13 15 16 15 13 11 10 10 11 12 12 11
9 10 10 12 17 21 23 26 28 29 28 26 28 31 32 32 32 34 36 36 34 32 30 28 26 23 17 8 3 4 10 14 15 17 16 11 8 6 6 10 13 14 13
9 9 9 11 14 18 23 27 27 25 21 21 25 29 30 31 32 34 37 38 36 32 28 27 26 23 16 8 3 3 7 11 14 16 15 11 6 3 2 6 10 12 11
10 10 12 13 13 15 21 27 29 26 21 20 23 27 29 29 31 33 35 36 34 30 27 26 24 20 15 9 3 1 2 5 9 12 11 8 4 1 0 2 4 5 4
14 14 15 17 16 16 20 27 30 30 26 23 25 27 28 28 29 31 32 31 29 26 24 23 21 18 17 13 6 1 0 1 4 7 6 4 1 0 0 0 1 1 1
17 17 18 20 19 17 19 24 30 33 31 28 27 27 26 26 27 28 28 26 24 22 20 19 19 19 19 16 10 5 4 4 5 6 4 3 2 2 2 2 3 4 4
18 18 18 20 20 18 17 22 28 32 32 31 29 26 25 24 24 24 23 21 18 15 13 14 15 17 15 12 9 7 7 7 7 7 7 6 6 5 5 5 6 6 7
18 17 17 19 19 18 17 21 27 30 32 33 30 26 24 23 23 22 19 15 13 9 7 9 11 11 9 5 4 5 6 6 5 7 11 11 9 7 6 6 7 8 9

GEFSMW_con_prob3kmehi_300.txt.gz
EHI
13 10 9 14 20 25 29 26 21 21 18 13 11 10 11 12 11 10 14 20 18 14 11 9 12 13 12 11 12 13 14 15 16 14 13 14 17 19 20 20 17 17 18
19 16 13 16 21 27 31 28 24 22 19 15 12 11 12 12 11 13 18 20 19 15 11 10 12 12 11 10 11 12 14 16 16 14 12 12 14 16 17 20 20 19 23
24 23 20 20 23 28 32 31 29 27 24 19 15 14 15 14 14 19 23 21 19 16 13 12 12 11 10 10 10 12 15 16 15 13 12 11 13 12 13 17 19 22 27
26 27 28 26 26 27 30 33 34 33 30 24 18 17 18 16 16 21 25 22 17 15 16 15 15 14 12 10 11 14 16 16 15 14 14 14 15 15 13 14 16 21 25
26 29 32 32 27 26 30 35 39 38 34 27 21 19 20 18 16 21 25 23 19 17 18 19 21 19 14 11 13 17 18 16 16 17 16 17 18 19 17 14 15 18 20
27 30 35 37 33 28 31 38 43 42 36 30 26 25 24 22 21 22 24 24 22 21 21 24 27 25 18 14 16 19 21 21 21 20 18 17 18 19 17 15 12 13 15
30 32 36 40 39 35 37 44 48 46 40 35 34 33 31 28 26 24 23 23 21 23 25 29 31 29 23 19 19 21 23 26 27 25 21 19 18 18 16 13 11 10 12
33 34 35 37 40 40 43 49 51 49 44 40 39 39 36 31 27 24 22 20 18 21 28 34 34 29 24 20 21 22 22 26 29 28 25 22 20 18 16 13 11 10 10
32 33 32 33 38 42 45 50 53 52 48 44 41 41 38 31 25 24 23 21 20 22 31 37 34 28 24 22 21 21 20 23 28 27 24 21 20 18 15 13 12 11 10
29 31 32 33 37 40 42 47 51 53 50 45 41 38 35 30 28 29 30 30 28 29 35 38 36 31 28 26 24 21 20 21 24 23 19 17 17 15 14 13 12 13 13
27 29 32 34 35 36 38 43 48 50 50 47 42 36 33 33 34 37 38 39 38 36 38 40 39 35 30 28 25 22 20 20 21 19 16 15 16 15 13 12 13 16 17
25 28 32 35 37 36 38 43 45 44 46 47 44 39 36 36 38 42 44 43 43 40 39 39 38 34 28 25 24 23 21 21 20 18 17 16 17 17 15 14 14 16 17
29 32 38 43 45 44 45 47 46 43 42 44 43 41 41 40 41 45 46 45 43 40 38 36 34 31 27 23 23 23 22 22 21 19 17 16 17 17 18 17 15 14 15
38 42 48 52 53 52 50 50 48 45 43 43 42 43 44 44 44 45 45 43 40 37 36 34 33 30 27 25 25 25 24 22 21 21 20 18 17 17 17 17 16 15 15
43 47 53 56 56 53 51 49 48 46 45 44 44 45 47 47 45 43 41 39 37 35 34 34 32 30 28 26 25 26 25 23 23 23 22 21 18 15 14 13 14 15 16
42 44 48 52 53 51 49 48 48 49 48 46 46 47 48 46 43 40 39 38 36 34 34 33 33 31 27 21 19 21 24 25 25 25 24 21 17 14 13 11 9 9 10
38 39 41 44 45 45 46 49 51 53 52 48 45 45 45 43 41 39 39 39 37 35 34 34 34 33 27 17 11 14 19 22 24 25 25 22 18 17 17 14 9 6 6
37 37 37 38 38 38 41 47 52 53 53 50 44 41 41 41 40 40 41 41 38 36 35 36 36 34 27 16 9 10 15 19 21 23 23 23 20 19 19 18 15 11 9
38 37 34 36 39 40 41 46 50 52 53 51 46 42 41 41 41 42 43 43 41 39 37 37 38 36 28 17 9 9 14 19 19 20 21 21 19 16 16 18 20 18 16
34 33 32 35 42 45 46 45 46 50 51 49 47 44 41 39 40 42 44 45 44 41 38 38 39 37 30 19 9 8 15 18 18 18 19 18 14 11 10 14 19 19 18
28 27 28 34 41 45 45 43 42 43 44 43 42 40 37 35 36 40 42 44 44 41 37 36 36 35 30 19 9 6 11 14 14 15 16 15 9 4 4 9 14 15 15
26 25 26 31 37 39 39 38 37 35 35 37 38 38 35 32 33 37 40 41 41 38 35 33 32 32 30 21 9 3 4 7 10 11 12 10 5 1 0 3 7 9 8
24 24 26 30 33 34 33 33 33 31 32 36 39 39 37 34 34 35 36 37 37 35 31 30 30 30 31 26 12 2 0 2 5 7 7 5 2 0 0 1 2 3 4
19 22 26 28 29 29 29 31 31 30 31 35 37 38 38 38 37 36 35 34 34 32 29 27 28 29 29 25 15 7 4 3 2 3 4 3 2 1 1 1 1 2 4
19 21 25 26 26 25 27 30 31 31 31 33 33 34 35 37 37 35 31 28 27 25 22 21 22 23 22 18 13 11 10 6 2 4 7 7 5 4 4 4 4 5 6
21 23 23 25 24 23 26 30 32 33 32 31 30 30 32 34 34 31 26 23 20 16 13 14 16 17 16 13 10 10 11 7 3 5 11 11 8 6 6 6 6 7 8

GEFSMW_con_prob3kmehi_306.txt.gz
EHI
9 10 9 7 5 4 5 7 9 8 7 7 7 7 6 6 5 4 3 4 5 6 5 3 2 2 1 0 0 0 1 2 3 3 3 3 3 2 2 3 3 3 4
11 11 11 8 6 5 6 8 9 9 8 7 7 8 7 5 5 4 4 4 4 5 4 3 2 1 1 1 1 1 2 3 3 3 4 4 3 1 1 2 3 3 3
12 12 13 12 9 7 8 9 10 10 7 6 7 8 8 7 6 6 5 4 4 4 3 3 2 2 2 2 2 3 3 3 3 4 4 4 3 1 1 2 3 3 3
11 12 16 17 12 9 10 11 11 9 7 6 7 8 8 8 8 7 6 5 4 3 4 4 4 3 3 3 3 4 5 4 3 3 4 4 3 2 2 2 3 3 4
11 14 19 20 17 15 14 14 13 11 9 9 9 8 7 7 6 7 6 5 4 4 4 6 7 5 4 3 3 4 5 5 4 3 3 3 3 3 3 3 3 3 3
15 17 20 22 23 23 22 19 17 17 14 12 11 10 8 6 6 7 7 5 4 4 5 6 7 7 5 4 4 4 4 4 3 2 2 2 2 2 2 2 1 1 1
19 18 20 23 26 29 30 27 24 23 20 16 14 13 11 9 8 8 7 6 5 4 4 5 7 7 6 5 4 4 3 2 1 1 1 1 1 1 1 1 1 0 0
21 20 19 22 25 28 31 31 29 27 24 19 15 13 13 11 11 11 10 9 7 4 3 4 6 7 7 6 4 2 1 1 0 0 0 0 0 0 0 1 1 1 0
21 21 21 22 22 23 26 29 30 29 27 23 16 12 13 13 12 12 12 11 7 3 2 4 5 5 6 7 5 3 1 0 0 0 0 0 0 0 0 1 2 1 1
23 23 23 22 21 21 24 28 30 30 29 25 18 13 13 13 11 11 12 11 8 4 3 4 5 4 5 7 7 5 3 1 1 1 1 0 0 0 0 1 2 3 3
25 24 24 23 22 23 26 29 30 29 27 24 18 15 14 13 12 12 12 11 9 6 4 3 3 4 5 7 9 8 8 6 5 4 3 2 2 1 1 2 4 5 5
23 21 21 23 24 27 29 29 28 26 24 22 20 17 15 12 13 14 13 11 9 7 5 3 3 4 6 9 11 11 12 12 10 8 6 5 4 4 4 4 5 5 6
16 16 17 21 25 28 30 29 27 25 23 22 21 19 15 12 12 13 13 12 11 9 8 7 7 8 9 11 12 12 13 13 13 11 10 9 8 7 6 5 4 4 5
10 11 14 18 22 26 29 28 27 26 25 23 22 20 17 14 11 10 11 14 15 14 14 14 13 13 12 12 13 13 12 13 13 12 12 11 11 9 7 5 3 3 3
7 9 12 15 18 23 27 29 28 27 26 25 24 22 19 16 13 11 12 15 19 21 21 20 19 18 16 15 14 13 12 12 12 12 12 12 10 8 5 2 1 1 1
10 11 12 15 18 22 28 32 32 29 26 25 23 22 21 19 17 15 14 16 19 23 26 26 24 20 18 15 12 11 11 11 11 10 10 11 9 6 2 1 0 0 0
16 16 16 18 20 23 28 33 34 31 27 25 23 22 23 22 20 17 16 17 19 22 26 27 26 22 18 14 8 6 8 10 10 9 9 10 9 6 3 2 0 0 0
18 17 16 17 19 22 26 29 30 29 27 25 23 23 24 23 21 18 17 18 19 21 23 25 25 22 18 13 7 4 6 9 9 9 8 8 8 6 4 3 2 1 0
14 14 13 13 14 16 21 25 26 27 28 26 24 24 25 24 22 20 18 18 18 19 20 21 21 19 17 14 7 4 6 8 9 8 7 6 5 4 3 4 4 3 1
9 10 12 12 11 12 16 21 25 27 28 27 26 24 23 22 21 20 18 17 16 15 15 16 16 15 16 14 8 4 6 8 7 6 6 4 3 2 1 3 4 3 2
6 8 11 13 13 14 16 18 22 25 26 26 24 22 21 19 18 18 17 16 15 14 14 13 13 14 15 13 7 4 5 6 5 5 5 3 1 1 0 1 3 2 1
4 6 8 11 15 16 15 15 16 19 21 21 20 20 21 19 18 18 19 19 17 16 15 14 13 14 14 12 6 2 2 3 3 3 3 2 1 0 0 1 1 1 1
4 5 6 7 10 12 12 10 9 11 14 15 17 19 20 19 19 19 21 21 21 19 17 15 14 14 14 11 7 3 1 1 1 1 2 1 0 0 0 0 0 1 1
6 5 5 5 6 7 8 8 7 7 9 12 16 18 18 18 18 19 19 20 20 20 18 16 15 15 13 11 8 5 2 1 0 0 0 0 0 0 0 0 0 0 1
8 8 7 6 5 5 7 8 8 7 8 12 16 17 17 17 16 15 14 14 14 15 15 14 14 14 12 9 6 4 2 1 0 0 0 0 0 0 0 0 0 0 0
11 10 9 8 6 6 7 8 9 8 9 12 15 16 17 16 14 11 9 9 9 10 10 11 11 12 10 7 3 2 2 1 0 0 0 0 0 0 0 0 0 0 0